sat.trackr.live / text

‹ back to catalog

STARLINK-3573

NORAD 51794 · 2022-017AC

PAYLOAD ACTIVE UNKNOWN

§ Identity

Operator
Country
US
Launch date
2022-02-25
Launch site
AFWTR
Launch vehicle
Mass (kg)
RCS (m²)

Purposes: comms

External: N2YO · Heavens-Above · Gunter

§ Orbital elements

Epoch: 2026-07-19T22:30:37.652256Z

Period
87.81 min
Inclination
53.2005°
Eccentricity
0.0012185
Mean motion
16.39936800 rev/d
Perigee alt
158.0 km
Apogee alt
173.9 km
Semi-major
6,544.1 km
B*
4.2018e-4
RAAN
77.7961°
Arg perigee
267.6456°
Mean anomaly
92.3197°
Rev number
24,441

§ Raw data

STARLINK-35731 51794U 22017AC  26200.93793579  .05934423  12337-4  42018-3 0  99982 51794  53.2005  77.7961 0012185 267.6456  92.3197 16.39936800244414

JSON: /api/v1/satellites/51794 · /tle

For live sub-satellite position, see the globe view (requires WebGL).

§ Visibility from observer

Set your observer location to see the next 7 days of passes ≥ 10°. The values pass through the URL so the page stays shareable.

No JS? Fill the form by hand. The geolocation button needs JavaScript.